Regional Weather Roundup
Issued by NWS

Home | Current Version | Previous Version | Graphics & Text | Print | Product List | Glossary On
Versions: 1 2 3 4 5 6 7 8 9 10 11 12 13 14 15 16 17 18 19 20 21 22 23 24 25 26 27 28 29 30 31 32 33 34 35 36 37 38 39 40 41 42 43 44 45 46 47 48 49 50
000
ASUS45 KCYS 300410
RWRWY

WYOMING REGIONAL WEATHER ROUNDUP
NATIONAL WEATHER SERVICE CHEYENNE WY
1000 PM MDT SUN MAR 29 2015

NOTE:  "FAIR" INDICATES FEW OR NO CLOUDS BELOW 12,000 FEET
WITH NO SIGNIFICANT WEATHER AND/OR OBSTRUCTIONS TO VISIBILITY.

WYZ001-300500-
YELLOWSTONE NATIONAL PARK

CITY           SKY/WX    TMP DP  RH WIND       PRES   REMARKS
LK YELLOWSTONE   N/A     27  18  69 CALM      30.28S
W YELLOWSTONE  NOT AVBL

$$
WYZ002>013-054>058-071-098>099-300500-
NORTHERN WYOMING

CITY           SKY/WX    TMP DP  RH WIND       PRES   REMARKS
JACKSON        FAIR      43  19  39 S6        30.24R
CODY           FAIR      54  16  22 W13G21    30.11R
GREYBULL       FAIR      49  19  30 E5        30.07R
WORLAND        FAIR      42  23  46 SE5       30.07S
SHERIDAN       FAIR      39  28  64 CALM      30.06R
BUFFALO        FAIR      41  25  53 W6        30.09S
GILLETTE       FAIR      35  26  69 S8        30.07S WCI  29
HULETT         FAIR      45  28  53 S8        30.07F
NEWCASTLE      FAIR      46  23  39 NE6       30.08S

$$
WYZ014>020-022>026-101>103-300500-
CENTRAL WYOMING

CITY           SKY/WX    TMP DP  RH WIND       PRES   REMARKS
BIG PINEY      FAIR      36  14  40 N7        30.25S WCI  30
PINEDALE       FAIR      32  19  59 CALM      30.26S
DUBOIS         FAIR      41  14  33 NW14G22   30.20S
LANDER         FAIR      52  11  19 NE5       30.12R
RIVERTON       FAIR      50  14  23 NW16      30.13R
CASPER         FAIR      33  18  53 SW3       30.11F
DOUGLAS        FAIR      46  21  37 SE3       30.12S

$$
WYZ021-027>030-104>119-300500-
SOUTHERN WYOMING

CITY           SKY/WX    TMP DP  RH WIND       PRES   REMARKS
EVANSTON       FAIR      42  15  33 SW8       30.28F
KEMMERER       FAIR      41  14  33 CALM      30.28R
FORT BRIDGER   FAIR      46  16  29 SW10      30.30S
ROCK SPRINGS   FAIR      45  13  27 S9        30.23S
DIXON          FAIR      40  18  41 CALM      30.25R
RAWLINS        FAIR      39   9  29 SW8       30.20S WCI  33
SARATOGA       FAIR      41  12  30 SW12      30.23F
LARAMIE        FAIR      40  14  34 W7        30.21S
CHEYENNE       FAIR      46  23  40 SW9       30.18S
TORRINGTON     FAIR      50  22  33 SE12      30.08F
PINE BLUFFS    FAIR      37  21  52 S9        30.16F WCI  31

$$



USA.gov is the U.S. government's official web portal to all federal, state and local government web resources and services.